owner,sensor,date,latitude,longitude,vertical_datum,direction_of_sea_water_velocity,sea_water_speed,upward_sea_water_velocity,qcFlag 
TABS,ioos:station:TABS:H:1,1998-03-01T00:00:00Z,27.8674,-96.5433,2.0,243.5652739,27.45004189,-99999.0,'11111222,11111222,99999999' 
TABS,ioos:station:TABS:H:1,1998-03-01T00:30:00Z,27.8674,-96.5433,2.0,246.0121761,32.61698331,-99999.0,'11111222,11111222,99999999' 
TABS,ioos:station:TABS:H:1,1998-03-01T01:00:00Z,27.8674,-96.5433,2.0,244.1040492,28.32397041,-99999.0,'11111222,11111222,99999999' 
TABS,ioos:station:TABS:H:1,1998-03-01T01:30:00Z,27.8674,-96.5433,2.0,245.6851154,30.40714554,-99999.0,'11111222,11111222,99999999' 
TABS,ioos:station:TABS:H:1,1998-03-01T02:00:00Z,27.8674,-96.5433,2.0,252.3235117,35.33838989,-99999.0,'11111222,11111222,99999999' 
TABS,ioos:station:TABS:H:1,1998-03-01T02:30:00Z,27.8674,-96.5433,2.0,250.8107602,35.80956995,-99999.0,'11111222,11111222,99999999' 
TABS,ioos:station:TABS:H:1,1998-03-01T03:00:00Z,27.8674,-96.5433,2.0,254.9923488,31.62876223,-99999.0,'11111222,11111222,99999999' 
TABS,ioos:station:TABS:H:1,1998-03-01T03:30:00Z,27.8674,-96.5433,2.0,249.8041903,33.65935977,-99999.0,'11111222,11111222,99999999' 
TABS,ioos:station:TABS:H:1,1998-03-01T04:00:00Z,27.8674,-96.5433,2.0,245.4809142,29.80790667,-99999.0,'11111222,11111222,99999999' 
TABS,ioos:station:TABS:H:1,1998-03-01T04:30:00Z,27.8674,-96.5433,2.0,238.3436736,25.55172401,-99999.0,'11111222,11111222,99999999' 
TABS,ioos:station:TABS:H:1,1998-03-01T05:00:00Z,27.8674,-96.5433,2.0,242.7728623,28.65488615,-99999.0,'11111222,11111222,99999999' 
TABS,ioos:station:TABS:H:1,1998-03-01T05:30:00Z,27.8674,-96.5433,2.0,244.9757275,29.59835806,-99999.0,'11111222,11111222,99999999' 
TABS,ioos:station:TABS:H:1,1998-03-01T06:00:00Z,27.8674,-96.5433,2.0,241.7697053,27.39892699,-99999.0,'11111222,11111222,99999999' 
TABS,ioos:station:TABS:H:1,1998-03-01T06:30:00Z,27.8674,-96.5433,2.0,244.6524958,28.19424232,-99999.0,'11111222,11111222,99999999' 
TABS,ioos:station:TABS:H:1,1998-03-01T07:00:00Z,27.8674,-96.5433,2.0,250.2559236,30.87504656,-99999.0,'11111222,11111222,99999999' 
TABS,ioos:station:TABS:H:1,1998-03-01T07:30:00Z,27.8674,-96.5433,2.0,256.5472099,28.80017535,-99999.0,'11111222,11111222,99999999' 
TABS,ioos:station:TABS:H:1,1998-03-01T08:00:00Z,27.8674,-96.5433,2.0,256.6060811,25.7297979,-99999.0,'11111222,11111222,99999999' 
TABS,ioos:station:TABS:H:1,1998-03-01T08:30:00Z,27.8674,-96.5433,2.0,257.1351198,22.77158097,-99999.0,'11111222,11111222,99999999' 
TABS,ioos:station:TABS:H:1,1998-03-01T09:00:00Z,27.8674,-96.5433,2.0,259.4150307,21.06848357,-99999.0,'11111222,11111222,99999999' 
TABS,ioos:station:TABS:H:1,1998-03-01T09:30:00Z,27.8674,-96.5433,2.0,263.3814448,19.34893537,-99999.0,'11111222,11111222,99999999' 
TABS,ioos:station:TABS:H:1,1998-03-01T10:00:00Z,27.8674,-96.5433,2.0,257.8931286,17.06963679,-99999.0,'11111222,11111222,99999999' 
TABS,ioos:station:TABS:H:1,1998-03-01T10:30:00Z,27.8674,-96.5433,2.0,256.2948089,12.57810797,-99999.0,'11111222,11111222,99999999' 
TABS,ioos:station:TABS:H:1,1998-03-01T11:00:00Z,27.8674,-96.5433,2.0,248.0597778,10.7592193,-99999.0,'11111222,11111222,99999999' 
TABS,ioos:station:TABS:H:1,1998-03-01T11:30:00Z,27.8674,-96.5433,2.0,229.6958906,8.982126697,-99999.0,'11133222,11111222,99999999' 
TABS,ioos:station:TABS:H:1,1998-03-01T12:00:00Z,27.8674,-96.5433,2.0,225.6339275,9.581883948,-99999.0,'11133222,11111222,99999999' 
TABS,ioos:station:TABS:H:1,1998-03-01T12:30:00Z,27.8674,-96.5433,2.0,216.3926557,11.29239124,-99999.0,'11111222,11111222,99999999' 
TABS,ioos:station:TABS:H:1,1998-03-01T13:00:00Z,27.8674,-96.5433,2.0,221.1211689,10.87191795,-99999.0,'11111222,11111222,99999999' 
TABS,ioos:station:TABS:H:1,1998-03-01T13:30:00Z,27.8674,-96.5433,2.0,230.3510034,5.610597116,-99999.0,'11133222,11111222,99999999' 
TABS,ioos:station:TABS:H:1,1998-03-01T14:00:00Z,27.8674,-96.5433,2.0,179.9997895,1.79,-99999.0,'11133222,11111222,99999999' 
TABS,ioos:station:TABS:H:1,1998-03-01T14:30:00Z,27.8674,-96.5433,2.0,167.1200751,3.364654514,-99999.0,'11133222,11111222,99999999' 
TABS,ioos:station:TABS:H:1,1998-03-01T15:00:00Z,27.8674,-96.5433,2.0,178.6271534,6.261796867,-99999.0,'11133222,11111222,99999999' 
TABS,ioos:station:TABS:H:1,1998-03-01T15:30:00Z,27.8674,-96.5433,2.0,166.9944049,7.954030425,-99999.0,'11133222,11111222,99999999' 
TABS,ioos:station:TABS:H:1,1998-03-01T16:00:00Z,27.8674,-96.5433,2.0,174.4637298,10.78028293,-99999.0,'11111222,11111222,99999999' 
TABS,ioos:station:TABS:H:1,1998-03-01T16:30:00Z,27.8674,-96.5433,2.0,188.2335988,12.49883995,-99999.0,'11111222,11111222,99999999' 
TABS,ioos:station:TABS:H:1,1998-03-01T17:00:00Z,27.8674,-96.5433,2.0,193.5669509,17.77603162,-99999.0,'11111222,11111222,99999999' 
TABS,ioos:station:TABS:H:1,1998-03-01T17:30:00Z,27.8674,-96.5433,2.0,196.2213881,20.79800471,-99999.0,'11111222,11111222,99999999' 
TABS,ioos:station:TABS:H:1,1998-03-01T18:00:00Z,27.8674,-96.5433,2.0,197.1272448,18.70974345,-99999.0,'11111222,11111222,99999999' 
TABS,ioos:station:TABS:H:1,1998-03-01T18:30:00Z,27.8674,-96.5433,2.0,194.3611706,19.23095941,-99999.0,'11111222,11111222,99999999' 
TABS,ioos:station:TABS:H:1,1998-03-01T19:00:00Z,27.8674,-96.5433,2.0,199.0143953,18.75326638,-99999.0,'11111222,11111222,99999999' 
TABS,ioos:station:TABS:H:1,1998-03-01T19:30:00Z,27.8674,-96.5433,2.0,194.1501173,15.83033165,-99999.0,'11111222,11111222,99999999' 
TABS,ioos:station:TABS:H:1,1998-03-01T20:00:00Z,27.8674,-96.5433,2.0,188.6194853,16.88066942,-99999.0,'11111222,11111222,99999999' 
TABS,ioos:station:TABS:H:1,1998-03-01T20:30:00Z,27.8674,-96.5433,2.0,182.6439535,16.25730913,-99999.0,'11111222,11111222,99999999' 
TABS,ioos:station:TABS:H:1,1998-03-01T21:00:00Z,27.8674,-96.5433,2.0,174.4775469,13.92462567,-99999.0,'11111222,11111222,99999999' 
TABS,ioos:station:TABS:H:1,1998-03-01T21:30:00Z,27.8674,-96.5433,2.0,168.8275718,13.05744998,-99999.0,'11111222,11111222,99999999' 
TABS,ioos:station:TABS:H:1,1998-03-01T22:00:00Z,27.8674,-96.5433,2.0,161.0326351,10.55297588,-99999.0,'11111222,11111222,99999999' 
TABS,ioos:station:TABS:H:1,1998-03-01T22:30:00Z,27.8674,-96.5433,2.0,162.4602848,12.34387702,-99999.0,'11111222,11111222,99999999' 
TABS,ioos:station:TABS:H:1,1998-03-01T23:00:00Z,27.8674,-96.5433,2.0,162.8332149,8.571872608,-99999.0,'11133222,11111222,99999999' 
TABS,ioos:station:TABS:H:1,1998-03-01T23:30:00Z,27.8674,-96.5433,2.0,169.0361126,9.411785165,-99999.0,'11133222,11111222,99999999' 
TABS,ioos:station:TABS:H:1,1998-03-02T00:00:00Z,27.8674,-96.5433,2.0,163.7960532,8.528804137,-99999.0,'11133222,11111222,99999999' 
TABS,ioos:station:TABS:H:1,1998-03-02T00:30:00Z,27.8674,-96.5433,2.0,184.1846959,8.221921916,-99999.0,'11133222,11111222,99999999' 
TABS,ioos:station:TABS:H:1,1998-03-02T01:00:00Z,27.8674,-96.5433,2.0,209.5587782,11.47327329,-99999.0,'11111222,11111222,99999999' 
TABS,ioos:station:TABS:H:1,1998-03-02T01:30:00Z,27.8674,-96.5433,2.0,241.0529084,17.54145376,-99999.0,'11111222,11111222,99999999' 
TABS,ioos:station:TABS:H:1,1998-03-02T02:00:00Z,27.8674,-96.5433,2.0,252.2739367,22.99152018,-99999.0,'11111222,11111222,99999999' 
TABS,ioos:station:TABS:H:1,1998-03-02T02:30:00Z,27.8674,-96.5433,2.0,250.1784927,32.94159984,-99999.0,'11111222,11111222,99999999' 
TABS,ioos:station:TABS:H:1,1998-03-02T03:00:00Z,27.8674,-96.5433,2.0,249.5984732,32.90389795,-99999.0,'11111222,11111222,99999999' 
TABS,ioos:station:TABS:H:1,1998-03-02T03:30:00Z,27.8674,-96.5433,2.0,246.1720396,30.61987916,-99999.0,'11111222,11111222,99999999' 
TABS,ioos:station:TABS:H:1,1998-03-02T04:00:00Z,27.8674,-96.5433,2.0,244.0881242,23.52496546,-99999.0,'11111222,11111222,99999999' 
TABS,ioos:station:TABS:H:1,1998-03-02T04:30:00Z,27.8674,-96.5433,2.0,237.5026605,23.84340999,-99999.0,'11111222,11111222,99999999' 
TABS,ioos:station:TABS:H:1,1998-03-02T05:00:00Z,27.8674,-96.5433,2.0,237.8348334,23.23630349,-99999.0,'11111222,11111222,99999999' 
TABS,ioos:station:TABS:H:1,1998-03-02T05:30:00Z,27.8674,-96.5433,2.0,239.5114669,24.38107873,-99999.0,'11111222,11111222,99999999' 
TABS,ioos:station:TABS:H:1,1998-03-02T06:00:00Z,27.8674,-96.5433,2.0,240.5401413,25.15207546,-99999.0,'11111222,11111222,99999999' 
TABS,ioos:station:TABS:H:1,1998-03-02T06:30:00Z,27.8674,-96.5433,2.0,236.5301551,21.6140533,-99999.0,'11111222,11111222,99999999' 
TABS,ioos:station:TABS:H:1,1998-03-02T07:00:00Z,27.8674,-96.5433,2.0,243.6834556,31.9179354,-99999.0,'11111222,11111222,99999999' 
TABS,ioos:station:TABS:H:1,1998-03-02T07:30:00Z,27.8674,-96.5433,2.0,244.5345165,27.72340708,-99999.0,'11111222,11111222,99999999' 
TABS,ioos:station:TABS:H:1,1998-03-02T08:00:00Z,27.8674,-96.5433,2.0,240.9855784,23.33903383,-99999.0,'11111222,11111222,99999999' 
TABS,ioos:station:TABS:H:1,1998-03-02T08:30:00Z,27.8674,-96.5433,2.0,241.7697053,27.39892699,-99999.0,'11111222,11111222,99999999' 
TABS,ioos:station:TABS:H:1,1998-03-02T09:00:00Z,27.8674,-96.5433,2.0,241.4700742,27.13498111,-99999.0,'11111222,11111222,99999999' 
TABS,ioos:station:TABS:H:1,1998-03-02T09:30:00Z,27.8674,-96.5433,2.0,242.2557612,29.12871436,-99999.0,'11111222,11111222,99999999' 
TABS,ioos:station:TABS:H:1,1998-03-02T10:00:00Z,27.8674,-96.5433,2.0,234.3167486,20.17832996,-99999.0,'11111222,11111222,99999999' 
TABS,ioos:station:TABS:H:1,1998-03-02T10:30:00Z,27.8674,-96.5433,2.0,231.462051,23.43392626,-99999.0,'11111222,11111222,99999999' 
TABS,ioos:station:TABS:H:1,1998-03-02T11:00:00Z,27.8674,-96.5433,2.0,230.7686316,30.38980092,-99999.0,'11111222,11111222,99999999' 
TABS,ioos:station:TABS:H:1,1998-03-02T11:30:00Z,27.8674,-96.5433,2.0,228.7559869,28.92624068,-99999.0,'11111222,11111222,99999999' 
TABS,ioos:station:TABS:H:1,1998-03-02T12:00:00Z,27.8674,-96.5433,2.0,228.0185354,28.06158406,-99999.0,'11111222,11111222,99999999' 
TABS,ioos:station:TABS:H:1,1998-03-02T12:30:00Z,27.8674,-96.5433,2.0,230.907104,21.50417866,-99999.0,'11111222,11111222,99999999' 
TABS,ioos:station:TABS:H:1,1998-03-02T13:00:00Z,27.8674,-96.5433,2.0,233.6673003,9.806431563,-99999.0,'11133222,11111222,99999999' 
TABS,ioos:station:TABS:H:1,1998-03-02T13:30:00Z,27.8674,-96.5433,2.0,226.4413845,8.431381856,-99999.0,'11133222,11111222,99999999' 
TABS,ioos:station:TABS:H:1,1998-03-02T14:00:00Z,27.8674,-96.5433,2.0,232.6427301,11.05839952,-99999.0,'11111222,11111222,99999999' 
TABS,ioos:station:TABS:H:1,1998-03-02T14:30:00Z,27.8674,-96.5433,2.0,238.4258775,12.24226286,-99999.0,'11111222,11111222,99999999' 
TABS,ioos:station:TABS:H:1,1998-03-02T15:00:00Z,27.8674,-96.5433,2.0,236.6821531,11.94294771,-99999.0,'11111222,11111222,99999999' 
TABS,ioos:station:TABS:H:1,1998-03-02T15:30:00Z,27.8674,-96.5433,2.0,224.9996843,9.489373004,-99999.0,'11133222,11111222,99999999' 
TABS,ioos:station:TABS:H:1,1998-03-02T16:00:00Z,27.8674,-96.5433,2.0,226.0671815,11.38639539,-99999.0,'11111222,11111222,99999999' 
TABS,ioos:station:TABS:H:1,1998-03-02T16:30:00Z,27.8674,-96.5433,2.0,226.9216358,12.65018577,-99999.0,'11111222,11111222,99999999' 
TABS,ioos:station:TABS:H:1,1998-03-02T17:00:00Z,27.8674,-96.5433,2.0,220.5294208,12.15679234,-99999.0,'11111222,11111222,99999999' 
TABS,ioos:station:TABS:H:1,1998-03-02T17:30:00Z,27.8674,-96.5433,2.0,224.9996843,12.43093721,-99999.0,'11111222,11111222,99999999' 
TABS,ioos:station:TABS:H:1,1998-03-02T18:00:00Z,27.8674,-96.5433,2.0,219.8122676,10.4798187,-99999.0,'11111222,11111222,99999999' 
TABS,ioos:station:TABS:H:1,1998-03-02T18:30:00Z,27.8674,-96.5433,2.0,218.3931831,10.07956348,-99999.0,'11111222,11111222,99999999' 
TABS,ioos:station:TABS:H:1,1998-03-02T19:00:00Z,27.8674,-96.5433,2.0,214.3848922,10.28767223,-99999.0,'11111222,11111222,99999999' 
TABS,ioos:station:TABS:H:1,1998-03-02T19:30:00Z,27.8674,-96.5433,2.0,206.1975038,10.46501314,-99999.0,'11111222,11111222,99999999' 
TABS,ioos:station:TABS:H:1,1998-03-02T20:00:00Z,27.8674,-96.5433,2.0,219.6275888,12.38634732,-99999.0,'11111222,11111222,99999999' 
TABS,ioos:station:TABS:H:1,1998-03-02T20:30:00Z,27.8674,-96.5433,2.0,222.4090199,13.92302051,-99999.0,'11111222,11111222,99999999' 
TABS,ioos:station:TABS:H:1,1998-03-02T21:00:00Z,27.8674,-96.5433,2.0,225.4763426,12.74957646,-99999.0,'11111222,11111222,99999999' 
TABS,ioos:station:TABS:H:1,1998-03-02T21:30:00Z,27.8674,-96.5433,2.0,216.2691615,11.83264975,-99999.0,'11111222,11111222,99999999' 
TABS,ioos:station:TABS:H:1,1998-03-02T22:00:00Z,27.8674,-96.5433,2.0,211.6204257,11.36767346,-99999.0,'11111222,11111222,99999999' 
TABS,ioos:station:TABS:H:1,1998-03-02T22:30:00Z,27.8674,-96.5433,2.0,221.3132896,13.08734121,-99999.0,'11111222,11111222,99999999' 
TABS,ioos:station:TABS:H:1,1998-03-02T23:00:00Z,27.8674,-96.5433,2.0,226.0874456,11.17430087,-99999.0,'11111222,11111222,99999999' 
TABS,ioos:station:TABS:H:1,1998-03-02T23:30:00Z,27.8674,-96.5433,2.0,241.426717,13.40227593,-99999.0,'11111222,11111222,99999999' 
TABS,ioos:station:TABS:H:1,1998-03-03T00:00:00Z,27.8674,-96.5433,2.0,246.2097411,19.21246731,-99999.0,'11111222,11111222,99999999' 
TABS,ioos:station:TABS:H:1,1998-03-03T00:30:00Z,27.8674,-96.5433,2.0,243.43459,22.98677881,-99999.0,'11111222,11111222,99999999' 
TABS,ioos:station:TABS:H:1,1998-03-03T01:00:00Z,27.8674,-96.5433,2.0,259.8530828,30.42584592,-99999.0,'11111222,11111222,99999999' 
TABS,ioos:station:TABS:H:1,1998-03-03T01:30:00Z,27.8674,-96.5433,2.0,264.9284614,26.92539322,-99999.0,'11111222,11111222,99999999' 
TABS,ioos:station:TABS:H:1,1998-03-03T02:00:00Z,27.8674,-96.5433,2.0,263.7289751,27.28323295,-99999.0,'11111222,11111222,99999999' 
TABS,ioos:station:TABS:H:1,1998-03-03T02:30:00Z,27.8674,-96.5433,2.0,262.2735982,27.67119079,-99999.0,'11111222,11111222,99999999' 
TABS,ioos:station:TABS:H:1,1998-03-03T03:00:00Z,27.8674,-96.5433,2.0,264.3142611,31.59541897,-99999.0,'11111222,11111222,99999999' 
TABS,ioos:station:TABS:H:1,1998-03-03T03:30:00Z,27.8674,-96.5433,2.0,262.1635958,32.78614494,-99999.0,'11111222,11111222,99999999' 
TABS,ioos:station:TABS:H:1,1998-03-03T04:00:00Z,27.8674,-96.5433,2.0,264.5699341,33.07841895,-99999.0,'11111222,11111222,99999999' 
TABS,ioos:station:TABS:H:1,1998-03-03T04:30:00Z,27.8674,-96.5433,2.0,265.6234049,35.12239741,-99999.0,'11111222,11111222,99999999' 
TABS,ioos:station:TABS:H:1,1998-03-03T05:00:00Z,27.8674,-96.5433,2.0,266.5096529,34.33367152,-99999.0,'11111222,11111222,99999999' 
TABS,ioos:station:TABS:H:1,1998-03-03T05:30:00Z,27.8674,-96.5433,2.0,266.2103615,33.74376683,-99999.0,'11111222,11111222,99999999' 
TABS,ioos:station:TABS:H:1,1998-03-03T06:00:00Z,27.8674,-96.5433,2.0,265.5042274,32.27930142,-99999.0,'11111222,11111222,99999999' 
TABS,ioos:station:TABS:H:1,1998-03-03T06:30:00Z,27.8674,-96.5433,2.0,262.0204721,32.20175461,-99999.0,'11111222,11111222,99999999' 
TABS,ioos:station:TABS:H:1,1998-03-03T07:00:00Z,27.8674,-96.5433,2.0,258.1938895,30.59722373,-99999.0,'11111222,11111222,99999999' 
TABS,ioos:station:TABS:H:1,1998-03-03T07:30:00Z,27.8674,-96.5433,2.0,257.8994903,29.86348272,-99999.0,'11111222,11111222,99999999' 
TABS,ioos:station:TABS:H:1,1998-03-03T08:00:00Z,27.8674,-96.5433,2.0,254.7606039,31.19695498,-99999.0,'11111222,11111222,99999999' 
TABS,ioos:station:TABS:H:1,1998-03-03T08:30:00Z,27.8674,-96.5433,2.0,250.3076039,32.28830129,-99999.0,'11111222,11111222,99999999' 
TABS,ioos:station:TABS:H:1,1998-03-03T09:00:00Z,27.8674,-96.5433,2.0,246.8711721,31.11045644,-99999.0,'11111222,11111222,99999999' 
TABS,ioos:station:TABS:H:1,1998-03-03T09:30:00Z,27.8674,-96.5433,2.0,245.1169643,29.39907822,-99999.0,'11111222,11111222,99999999' 
TABS,ioos:station:TABS:H:1,1998-03-03T10:00:00Z,27.8674,-96.5433,2.0,243.0448297,29.58386385,-99999.0,'11111222,11111222,99999999' 
TABS,ioos:station:TABS:H:1,1998-03-03T10:30:00Z,27.8674,-96.5433,2.0,246.77292,32.10180057,-99999.0,'11111222,11111222,99999999' 
TABS,ioos:station:TABS:H:1,1998-03-03T11:00:00Z,27.8674,-96.5433,2.0,247.7786893,33.47619602,-99999.0,'11111222,11111222,99999999' 
TABS,ioos:station:TABS:H:1,1998-03-03T11:30:00Z,27.8674,-96.5433,2.0,248.9479463,31.93119008,-99999.0,'11111222,11111222,99999999' 
TABS,ioos:station:TABS:H:1,1998-03-03T12:00:00Z,27.8674,-96.5433,2.0,255.7944998,25.51000784,-99999.0,'11111222,11111222,99999999' 
TABS,ioos:station:TABS:H:1,1998-03-03T12:30:00Z,27.8674,-96.5433,2.0,260.7310221,28.6844993,-99999.0,'11111222,11111222,99999999' 
TABS,ioos:station:TABS:H:1,1998-03-03T13:00:00Z,27.8674,-96.5433,2.0,272.1118558,24.15640081,-99999.0,'11111222,11111222,99999999' 
TABS,ioos:station:TABS:H:1,1998-03-03T13:30:00Z,27.8674,-96.5433,2.0,276.2228848,24.72567087,-99999.0,'11111222,11111222,99999999' 
TABS,ioos:station:TABS:H:1,1998-03-03T14:00:00Z,27.8674,-96.5433,2.0,283.4375653,24.35675882,-99999.0,'11111222,11111222,99999999' 
TABS,ioos:station:TABS:H:1,1998-03-03T14:30:00Z,27.8674,-96.5433,2.0,286.3994461,23.7668698,-99999.0,'11111222,11111222,99999999' 
TABS,ioos:station:TABS:H:1,1998-03-03T15:00:00Z,27.8674,-96.5433,2.0,288.3229089,24.17565925,-99999.0,'11111222,11111222,99999999' 
TABS,ioos:station:TABS:H:1,1998-03-03T15:30:00Z,27.8674,-96.5433,2.0,290.8004427,23.90821198,-99999.0,'11111222,11111222,99999999' 
TABS,ioos:station:TABS:H:1,1998-03-03T16:00:00Z,27.8674,-96.5433,2.0,292.4379464,22.24395873,-99999.0,'11111222,11111222,99999999' 
TABS,ioos:station:TABS:H:1,1998-03-03T16:30:00Z,27.8674,-96.5433,2.0,295.0067294,19.72941966,-99999.0,'11111222,11111222,99999999' 
TABS,ioos:station:TABS:H:1,1998-03-03T17:00:00Z,27.8674,-96.5433,2.0,294.0082468,17.94218771,-99999.0,'11111222,11111222,99999999' 
TABS,ioos:station:TABS:H:1,1998-03-03T17:30:00Z,27.8674,-96.5433,2.0,301.7065913,17.86650777,-99999.0,'11111222,11111222,99999999' 
TABS,ioos:station:TABS:H:1,1998-03-03T18:00:00Z,27.8674,-96.5433,2.0,303.568763,16.98218478,-99999.0,'11111222,11111222,99999999' 
TABS,ioos:station:TABS:H:1,1998-03-03T18:30:00Z,27.8674,-96.5433,2.0,315.0003157,16.43316159,-99999.0,'11111222,11111222,99999999' 
TABS,ioos:station:TABS:H:1,1998-03-03T19:00:00Z,27.8674,-96.5433,2.0,316.512467,15.80934217,-99999.0,'11111222,11111222,99999999' 
TABS,ioos:station:TABS:H:1,1998-03-03T19:30:00Z,27.8674,-96.5433,2.0,325.5370052,15.00323298,-99999.0,'11111222,11111222,99999999' 
TABS,ioos:station:TABS:H:1,1998-03-03T20:00:00Z,27.8674,-96.5433,2.0,322.8588992,13.0841469,-99999.0,'11111222,11111222,99999999' 
TABS,ioos:station:TABS:H:1,1998-03-03T20:30:00Z,27.8674,-96.5433,2.0,331.8093144,11.66355435,-99999.0,'11111222,11111222,99999999' 
TABS,ioos:station:TABS:H:1,1998-03-03T21:00:00Z,27.8674,-96.5433,2.0,331.6340651,10.67131669,-99999.0,'11111222,11111222,99999999' 
TABS,ioos:station:TABS:H:1,1998-03-03T21:30:00Z,27.8674,-96.5433,2.0,333.9197396,8.461583776,-99999.0,'11133222,11111222,99999999' 
TABS,ioos:station:TABS:H:1,1998-03-03T22:00:00Z,27.8674,-96.5433,2.0,0.000210459,7.15,-99999.0,'11133222,11111222,99999999' 
TABS,ioos:station:TABS:H:1,1998-03-03T22:30:00Z,27.8674,-96.5433,2.0,352.9048005,7.205178693,-99999.0,'11133222,11111222,99999999' 
TABS,ioos:station:TABS:H:1,1998-03-03T23:00:00Z,27.8674,-96.5433,2.0,5.56340627,4.64186385,-99999.0,'11133222,11111222,99999999' 
TABS,ioos:station:TABS:H:1,1998-03-03T23:30:00Z,27.8674,-96.5433,2.0,42.06943958,6.223608278,-99999.0,'11133222,11111222,99999999' 
TABS,ioos:station:TABS:H:1,1998-03-04T00:00:00Z,27.8674,-96.5433,2.0,53.1814369,4.472001789,-99999.0,'11133222,11111222,99999999' 
TABS,ioos:station:TABS:H:1,1998-03-04T00:30:00Z,27.8674,-96.5433,2.0,30.09265932,3.270856157,-99999.0,'11133222,11111222,99999999' 
TABS,ioos:station:TABS:H:1,1998-03-04T01:00:00Z,27.8674,-96.5433,2.0,14.65401194,2.925149569,-99999.0,'11133222,11111222,99999999' 
TABS,ioos:station:TABS:H:1,1998-03-04T01:30:00Z,27.8674,-96.5433,2.0,22.80665262,3.070016287,-99999.0,'11133222,11111222,99999999' 
TABS,ioos:station:TABS:H:1,1998-03-04T02:00:00Z,27.8674,-96.5433,2.0,41.28814015,3.167412193,-99999.0,'11133222,11111222,99999999' 
TABS,ioos:station:TABS:H:1,1998-03-04T02:30:00Z,27.8674,-96.5433,2.0,38.75380421,2.859545418,-99999.0,'11133222,11111222,99999999' 
TABS,ioos:station:TABS:H:1,1998-03-04T03:00:00Z,27.8674,-96.5433,2.0,35.46848196,3.84314975,-99999.0,'11133222,11111222,99999999' 
TABS,ioos:station:TABS:H:1,1998-03-04T03:30:00Z,27.8674,-96.5433,2.0,62.69711335,4.861614958,-99999.0,'11133222,11111222,99999999' 
TABS,ioos:station:TABS:H:1,1998-03-04T04:00:00Z,27.8674,-96.5433,2.0,69.66298596,4.287248535,-99999.0,'11133222,11111222,99999999' 
TABS,ioos:station:TABS:H:1,1998-03-04T04:30:00Z,27.8674,-96.5433,2.0,73.80130931,3.728002146,-99999.0,'11133222,11111222,99999999' 
TABS,ioos:station:TABS:H:1,1998-03-04T05:00:00Z,27.8674,-96.5433,2.0,83.9488557,2.845856637,-99999.0,'11133222,11111222,99999999' 
TABS,ioos:station:TABS:H:1,1998-03-04T05:30:00Z,27.8674,-96.5433,2.0,74.81884679,3.398602654,-99999.0,'11133222,11111222,99999999' 
TABS,ioos:station:TABS:H:1,1998-03-04T06:00:00Z,27.8674,-96.5433,2.0,78.32124298,3.655680511,-99999.0,'11133222,11111222,99999999' 
TABS,ioos:station:TABS:H:1,1998-03-04T06:30:00Z,27.8674,-96.5433,2.0,55.78016527,4.498810954,-99999.0,'11133222,11111222,99999999' 
TABS,ioos:station:TABS:H:1,1998-03-04T07:00:00Z,27.8674,-96.5433,2.0,57.49498758,3.889280139,-99999.0,'11133222,11111222,99999999' 
TABS,ioos:station:TABS:H:1,1998-03-04T07:30:00Z,27.8674,-96.5433,2.0,32.18452718,4.749873683,-99999.0,'11133222,11111222,99999999' 
TABS,ioos:station:TABS:H:1,1998-03-04T08:00:00Z,27.8674,-96.5433,2.0,34.7619315,6.524415683,-99999.0,'11133222,11111222,99999999' 
TABS,ioos:station:TABS:H:1,1998-03-04T08:30:00Z,27.8674,-96.5433,2.0,37.07440501,8.410053508,-99999.0,'11133222,11111222,99999999' 
TABS,ioos:station:TABS:H:1,1998-03-04T09:00:00Z,27.8674,-96.5433,2.0,26.53442849,8.327118349,-99999.0,'11133222,11111222,99999999' 
TABS,ioos:station:TABS:H:1,1998-03-04T09:30:00Z,27.8674,-96.5433,2.0,27.00303981,8.193192296,-99999.0,'11133222,11111222,99999999' 
TABS,ioos:station:TABS:H:1,1998-03-04T10:00:00Z,27.8674,-96.5433,2.0,23.29471924,9.406806047,-99999.0,'11133222,11111222,99999999' 
TABS,ioos:station:TABS:H:1,1998-03-04T10:30:00Z,27.8674,-96.5433,2.0,27.32909619,10.06320029,-99999.0,'11111222,11111222,99999999' 
TABS,ioos:station:TABS:H:1,1998-03-04T11:00:00Z,27.8674,-96.5433,2.0,26.876465,11.52486442,-99999.0,'11111222,11111222,99999999' 
TABS,ioos:station:TABS:H:1,1998-03-04T11:30:00Z,27.8674,-96.5433,2.0,30.3154246,11.21329568,-99999.0,'11111222,11111222,99999999' 
TABS,ioos:station:TABS:H:1,1998-03-04T12:00:00Z,27.8674,-96.5433,2.0,32.89064874,11.5277925,-99999.0,'11111222,11111222,99999999' 
TABS,ioos:station:TABS:H:1,1998-03-04T12:30:00Z,27.8674,-96.5433,2.0,39.01399802,11.11978417,-99999.0,'11111222,11111222,99999999' 
TABS,ioos:station:TABS:H:1,1998-03-04T13:00:00Z,27.8674,-96.5433,2.0,40.24641551,10.15362497,-99999.0,'11111222,11111222,99999999' 
TABS,ioos:station:TABS:H:1,1998-03-04T13:30:00Z,27.8674,-96.5433,2.0,43.89129569,10.96220781,-99999.0,'11111222,11111222,99999999' 
TABS,ioos:station:TABS:H:1,1998-03-04T14:00:00Z,27.8674,-96.5433,2.0,43.14160658,9.593414408,-99999.0,'11133222,11111222,99999999' 
TABS,ioos:station:TABS:H:1,1998-03-04T14:30:00Z,27.8674,-96.5433,2.0,36.65489532,7.99005632,-99999.0,'11133222,11111222,99999999' 
TABS,ioos:station:TABS:H:1,1998-03-04T15:00:00Z,27.8674,-96.5433,2.0,29.85221692,9.281535433,-99999.0,'11133222,11111222,99999999' 
TABS,ioos:station:TABS:H:1,1998-03-04T15:30:00Z,27.8674,-96.5433,2.0,33.65733678,9.671199512,-99999.0,'11133222,11111222,99999999' 
TABS,ioos:station:TABS:H:1,1998-03-04T16:00:00Z,27.8674,-96.5433,2.0,32.08162416,10.3742084,-99999.0,'11111222,11111222,99999999' 
TABS,ioos:station:TABS:H:1,1998-03-04T16:30:00Z,27.8674,-96.5433,2.0,36.18421223,12.36488577,-99999.0,'11111222,11111222,99999999' 
TABS,ioos:station:TABS:H:1,1998-03-04T17:00:00Z,27.8674,-96.5433,2.0,35.53780515,12.81746465,-99999.0,'11111222,11111222,99999999' 
TABS,ioos:station:TABS:H:1,1998-03-04T17:30:00Z,27.8674,-96.5433,2.0,33.35013489,13.55156449,-99999.0,'11111222,11111222,99999999' 
TABS,ioos:station:TABS:H:1,1998-03-04T18:00:00Z,27.8674,-96.5433,2.0,33.35013489,13.55156449,-99999.0,'11111222,11111222,99999999' 